Flag for Switzerland Weather past 2 weeks in Altdorf, Uri, Switzerland

Now
46 °F

Cool.


Feels Like: 45 °F
Forecast: 29 / 53 °F
Wind: 3 mph from South

Location: Altdorf

Current Time: Oct 23, 2014 at 8:22:17 PM

Latest Report: Oct 23, 2014 at 7:00 PM


Visibility: N/A

Pressure: 30.27 "Hg

Humidity: 69%

Dew point: 36 °F

Location of AltdorfLocation

Historic Weather in Altdorf — Graph

°F

Altdorf temperature yesterday

Maximum temperature yesterday: 49 °F (at 1:00 AM)
Minimum temperature yesterday: 42 °F (at 6:00 AM)
Average temperature yesterday: 45 °F

Past Weeks' High & Low Weather Summary

 TemperatureHumidityPressure
High77 °F (Oct 9, 2:00 PM)99% (Oct 16, 2:00 AM)30.33 "Hg (Oct 16, 2:00 AM)
Low42 °F (Oct 22, 6:00 AM)29% (Oct 9, 1:00 PM)29.71 "Hg (Oct 12, 10:00 PM)
Average58 °F77%29.99 "Hg
* Reported Oct 8 7:00 PM — Oct 23 7:00 PM, Altdorf, Weather by CustomWeather, © 2014

Note: Actual official high and low records may vary slightly from our data, if they occured in-between our weather recording intervals... More about our weather records

Advertising

Altdorf weather history for previous 24 hours

 ConditionsComfort  
Time TempWeatherWind HumidityBarometerVisibility
7:00 PM
Oct 23
46 °FCool.3 mph69%30.27 "HgN/A
6:00 PM47 °FCool.3 mph74%30.27 "HgN/A
5:00 PM49 °FPartly sunny.No wind65%30.27 "Hg14 mi
4:00 PM49 °FCool.3 mph64%30.27 "HgN/A
3:00 PM49 °FCool.3 mph63%30.29 "HgN/A
2:00 PM50 °FOvercast.6 mph57%30.31 "Hg9 mi
1:00 PM49 °FCool.8 mph57%30.32 "HgN/A
12:00 PM48 °FCool.12 mph58%30.33 "HgN/A
11:00 AM48 °FOvercast.12 mph60%30.32 "Hg11 mi
10:00 AM47 °FCool.10 mph68%30.31 "HgN/A
9:00 AM48 °FCool.12 mph54%30.29 "HgN/A
8:00 AM47 °FOvercast.16 mph60%30.27 "Hg9 mi
7:00 AM47 °FCool.18 mph60%30.27 "HgN/A
6:00 AM46 °FCool.16 mph68%30.28 "HgN/A
5:00 AM46 °FLight rain. Overcast.13 mph69%30.28 "Hg6 mi
4:00 AM44 °FQuite cool.18 mph75%30.27 "HgN/A
3:00 AM45 °FCool.17 mph71%30.27 "HgN/A
2:00 AM45 °FRain. Overcast.21 mph70%30.25 "Hg6 mi
1:00 AM45 °FQuite cool.18 mph72%30.23 "HgN/A
12:00 AM45 °FCool.22 mph68%30.23 "HgN/A
11:00 PM
Oct 22
44 °FRain. Overcast.22 mph72%30.24 "Hg4 mi
10:00 PM46 °FCool.20 mph63%30.22 "HgN/A
9:00 PM44 °FQuite cool.21 mph72%30.22 "HgN/A
8:00 PM45 °FRain. Overcast.18 mph63%30.21 "Hg4 mi
Weather by CustomWeather, © 2014

See weather overviewHow to use our weather pages